Regional Weather Roundup
Issued by NWS

Home | Current Version | Previous Version | Graphics & Text | Print | Product List | Glossary Off
Versions: 1 2 3 4 5 6 7 8 9 10 11 12 13 14 15 16 17 18 19 20 21 22 23 24 25 26 27 28 29 30 31 32 33 34 35 36 37 38 39 40 41 42 43 44 45 46 47 48 49 50

000
ASUS45 KCYS 312110
RWRWY

WYOMING REGIONAL WEATHER ROUNDUP
NATIONAL WEATHER SERVICE CHEYENNE WY
300 PM MDT TUE MAY 31 2016

NOTE:  "FAIR" INDICATES FEW OR NO CLOUDS BELOW 12,000 FEET
WITH NO SIGNIFICANT WEATHER AND/OR OBSTRUCTIONS TO VISIBILITY.

WYZ001-312200-
YELLOWSTONE NATIONAL PARK

CITY           SKY/WX    TMP DP  RH WIND       PRES   REMARKS
LK YELLOWSTONE   N/A     51  24  34 VRB6      30.25S
W YELLOWSTONE  NOT AVBL

$$
WYZ002>013-054>058-071-098>099-312200-
NORTHERN WYOMING

CITY           SKY/WX    TMP DP  RH WIND       PRES   REMARKS
JACKSON        SUNNY     63  23  22 CALM      30.14F
CODY           FAIR      61  36  39 NE15      30.13F
GREYBULL       FAIR      66  31  27 N18G29    30.10F
WORLAND        FAIR      68  26  20 N14G24    30.09F
SHERIDAN       PTSUNNY   62  42  47 N22G31    30.14S
BUFFALO        CLOUDY    54  37  52 N32G43    30.13S
GILLETTE       FAIR      56  40  55 NW26G39   30.10R
HULETT         CLOUDY    50  43  76 W17G28    30.09R
NEWCASTLE      MOCLDY    55  34  44 NW24G31   30.09R

$$
WYZ014>020-022>026-101>103-312200-
CENTRAL WYOMING

CITY           SKY/WX    TMP DP  RH WIND       PRES   REMARKS
BIG PINEY      FAIR      65  30  27 W8        30.15F
PINEDALE       FAIR      61  21  21 N14G23    30.17S
DUBOIS         FAIR      61  14  16 N7G17     30.14S
LANDER         FAIR      62  36  37 VRB5      30.12F
RIVERTON       FAIR      64  31  28 E12G17    30.13F
CASPER         FAIR      58  25  28 NW8G22    30.13S
DOUGLAS          N/A    N/A N/A N/A MISG      30.10S

$$
WYZ021-027>030-104>119-312200-
SOUTHERN WYOMING

CITY           SKY/WX    TMP DP  RH WIND       PRES   REMARKS
EVANSTON       FAIR      64  28  25 CALM      30.16F
KEMMERER         N/A     63  30  29 NW12G17   30.18S
FORT BRIDGER   PTCLDY    68  32  26 W9G17     30.18F
ROCK SPRINGS   FAIR      66  29  24 NW8       30.14F
DIXON          FAIR      65  34  32 N5G18     30.15S
RAWLINS        PTSUNNY   60  31  33 NW10      30.16S
SARATOGA       MOCLDY    61  34  36 N13G22    30.16F
LARAMIE        FAIR      60  33  36 NW17G24   30.14F
CHEYENNE       LGT RAIN  57  39  51 N6        30.12R
TORRINGTON     PTSUNNY   68  35  29 W18       30.04S
PINE BLUFFS    FAIR      61  41  48 W3        30.10S

$$



USA.gov is the U.S. government's official web portal to all federal, state and local government web resources and services.